MOLNIYA 3-50

Last updated on Tue Jun 27 2023 00:03:05 GMT+0000 (Coordinated Universal Time)

1 25847U 99036A 23177.33623636 .00000043 00000+0 -95905-2 0 9992 2 25847 63.3526 279.3041 7232742 282.8310 11.5442 2.00587938175619

Satellite not in orbit

MOLNIYA 3-50